Theta_e
307 307 307 307 308 307 302 292 281 297 301 288 287 285 286 291 287 290 289 290 288 285 284 283 280 283 285 290 290 285 288 283 279 282 289 292 288 285 285 277 278 281 277 275
306 306 306 307 307 306 297 287 288 299 295 283 284 286 286 287 287 287 287 286 288 287 283 278 283 283 290 291 288 285 287 281 276 279 284 287 286 288 287 286 281 275 273 275
306 306 305 306 306 305 296 288 284 289 292 287 283 283 283 284 289 287 287 286 288 285 283 285 281 283 289 290 289 297 292 283 281 276 277 284 281 285 286 286 278 275 278 280
305 305 305 305 306 305 296 286 282 287 283 285 284 284 284 283 282 287 288 285 285 284 280 281 281 283 285 288 292 290 288 279 282 283 284 285 284 282 283 281 282 279 281 281
304 304 304 305 305 305 295 285 283 286 283 288 286 285 281 282 284 284 283 283 285 284 280 281 279 282 283 284 286 285 285 275 277 275 282 282 280 280 281 282 282 282 283 282
304 304 304 304 304 304 295 293 288 286 284 283 284 284 282 283 286 287 287 285 283 282 284 286 287 287 288 287 286 284 284 280 276 276 280 280 276 275 280 281 284 284 280 284
303 303 303 303 304 303 297 296 289 282 277 283 283 284 285 283 285 283 286 286 284 286 290 289 287 286 286 286 286 288 282 280 280 277 278 269 277 286 286 284 286 287 283 282
302 303 302 302 303 304 293 298 294 287 278 283 283 283 284 285 285 284 284 286 289 289 287 283 281 280 282 283 284 284 285 281 278 277 276 278 281 283 284 283 283 287 284 280
301 302 302 302 302 303 295 293 298 292 283 281 286 284 284 280 280 281 284 288 290 287 283 279 278 275 279 278 280 285 284 283 279 276 274 271 280 284 287 287 278 284 283 279
301 301 301 301 301 302 296 291 296 293 286 286 286 282 282 285 282 280 283 285 285 287 282 279 278 278 281 276 277 277 279 278 276 276 277 279 285 287 288 277 278 283 283 281
300 300 301 301 302 302 299 294 295 293 286 288 288 289 285 285 284 281 284 283 283 283 281 278 278 277 279 277 280 279 278 278 277 279 277 274 286 284 281 283 282 282 283 282
299 299 300 300 301 301 301 292 296 297 290 289 294 293 293 291 290 285 285 284 284 286 283 280 279 278 278 278 272 283 276 281 280 281 280 285 287 285 286 285 284 282 283 282
298 299 299 300 300 301 300 292 295 294 289 289 290 289 294 295 294 294 285 285 289 286 291 285 284 280 279 275 276 278 284 288 283 283 284 284 287 287 286 286 283 282 283 282
298 298 299 299 300 301 300 293 295 292 290 282 284 294 292 297 296 295 295 292 293 292 290 287 284 282 286 278 281 280 283 288 284 282 284 284 286 287 285 283 283 283 283 283
298 298 298 299 300 299 298 296 295 294 288 281 281 289 293 295 294 293 291 291 289 288 287 285 282 283 285 284 284 282 287 285 282 281 286 284 283 287 284 282 282 282 282 282
297 297 298 298 298 297 294 285 294 293 291 284 275 289 290 291 291 291 290 290 288 288 288 286 287 287 287 282 279 286 289 289 289 285 285 282 284 285 286 282 282 283 282 282
297 298 298 299 299 296 288 286 290 296 293 286 276 280 288 292 291 289 288 290 289 288 288 286 287 285 289 284 281 287 288 288 286 285 286 284 285 284 286 284 283 284 282 281
297 297 298 298 298 295 291 293 297 296 289 288 279 277 285 293 288 287 292 288 291 290 288 287 285 287 288 282 285 287 286 284 284 284 285 285 285 286 285 285 284 281 279 279
297 297 298 295 292 287 290 297 298 295 287 279 280 281 277 292 288 289 288 290 284 289 285 284 286 283 279 284 285 285 285 284 284 284 284 284 284 284 283 284 282 279 279 278
297 294 288 283 287 296 295 289 285 285 288 288 282 283 282 288 286 285 285 285 283 280 281 283 280 281 286 287 287 286 285 285 285 282 281 283 283 282 282 281 280 279 278 277
291 285 283 289 297 289 286 281 279 282 280 283 283 282 283 288 283 282 285 282 283 279 279 280 277 278 284 287 286 286 287 286 286 285 284 284 284 284 282 279 279 278 277 275
289 289 293 291 286 283 278 277 280 281 278 281 281 282 284 286 290 284 284 281 280 274 278 274 274 280 284 284 284 285 286 285 284 284 283 284 284 283 281 279 277 276 275 273
293 287 285 280 279 276 271 271 276 280 282 282 282 279 283 283 284 283 282 278 274 279 273 275 279 280 283 283 284 284 284 284 283 282 282 282 281 281 279 274 270 271 270 269
281 278 274 274 275 276 276 278 278 280 279 283 284 280 283 281 278 277 277 278 280 274 272 276 278 280 282 283 284 283 281 279 279 278 278 276 275 270 270 271 271 270 269 266
281 281 271 276 277 279 281 278 278 281 287 286 282 282 282 280 279 280 279 277 276 275 276 274 276 280 282 282 282 280 278 277 276 275 274 272 270 270 266 264 268 270 269 268
283 281 280 283 283 283 282 276 282 287 287 284 284 282 279 278 279 276 274 275 273 275 277 282 277 277 277 279 279 277 276 276 274 273 272 270 269 269 268 268 269 269 270 268
282 281 284 284 284 284 279 283 285 286 285 278 282 278 278 281 277 276 278 274 275 280 281 280 276 278 277 276 275 275 275 274 273 270 271 269 270 271 271 269 268 270 269 268
Wind_Speed
17 16 15 14 14 18 5 4 2 3 3 3 2 5 6 1 2 2 2 2 1 4 4 3 2 5 3 0 2 2 2 4 4 8 6 5 5 2 3 3 1 3 3 7
18 18 17 15 17 16 4 3 1 2 1 8 5 1 1 1 2 1 1 3 3 3 6 1 5 3 5 3 2 1 1 2 4 5 3 4 4 2 4 2 2 4 2 7
18 19 17 16 17 15 5 3 4 1 1 2 6 5 3 5 2 3 1 1 1 3 2 2 2 3 3 2 4 3 1 4 6 7 7 4 4 3 4 4 4 5 10 17
18 19 18 18 18 18 4 2 4 3 7 9 4 6 7 7 6 3 4 3 6 5 3 2 5 4 3 2 4 3 4 5 4 6 7 7 13 8 9 14 14 13 15 17
17 19 20 18 18 18 2 5 4 1 1 11 11 8 6 6 5 5 4 4 4 5 7 9 2 1 2 5 1 4 2 4 3 4 8 10 16 13 15 22 18 15 17 24
21 18 16 16 18 14 3 2 1 4 4 6 10 12 5 7 7 5 5 3 3 3 7 6 8 7 6 6 4 5 2 3 2 12 5 8 11 10 15 7 6 6 8 9
18 21 19 17 17 17 2 1 4 4 2 6 11 6 13 8 8 6 0 4 5 4 6 4 2 4 6 7 8 7 7 5 3 7 3 8 9 5 6 7 8 7 1 3
16 19 19 15 15 18 3 3 2 2 3 6 4 6 7 9 7 6 5 5 5 1 5 4 4 2 3 6 9 11 7 5 2 4 6 11 12 9 6 4 8 6 7 7
16 16 18 21 20 15 3 2 3 1 4 8 8 9 6 5 4 2 6 5 5 4 3 3 4 4 3 3 4 3 6 4 4 3 7 7 6 3 1 3 7 2 6 10
18 17 18 19 22 20 5 2 6 1 2 3 8 6 9 6 3 2 3 2 3 4 3 4 4 4 3 3 4 4 3 2 9 10 10 7 6 4 2 3 7 1 6 10
20 19 18 18 19 21 10 4 7 7 2 4 1 5 5 4 4 5 4 4 2 3 4 4 4 4 5 2 4 5 7 5 4 4 5 9 2 3 6 2 1 2 4 7
21 20 20 19 18 20 17 2 5 5 2 1 2 3 2 5 7 6 1 2 2 3 2 2 1 2 1 5 4 5 5 9 5 7 6 3 3 4 4 2 1 2 4 7
22 21 21 21 20 22 22 3 7 4 3 2 3 8 12 2 3 3 5 1 3 3 4 2 2 4 3 4 6 3 3 3 3 2 5 6 6 3 3 3 3 2 4 10
23 21 21 20 20 22 26 3 5 6 3 2 4 3 8 13 6 3 4 5 2 3 2 2 3 3 5 4 5 4 5 4 5 6 5 3 8 7 7 4 8 8 7 7
23 21 20 20 21 20 7 4 5 6 6 3 2 4 5 9 13 12 6 5 5 3 1 4 4 3 2 3 1 4 6 7 6 8 4 3 3 10 10 8 6 8 10 10
23 22 21 21 20 16 5 4 6 3 4 3 2 1 3 2 6 12 11 9 5 4 4 3 3 5 4 4 5 5 11 7 4 4 4 3 5 9 8 7 8 9 8 10
23 22 21 21 23 10 2 1 4 13 4 1 3 4 4 6 6 4 3 4 4 4 4 4 3 4 7 4 8 3 7 6 3 8 11 6 6 6 10 11 11 11 10 8
24 23 21 21 22 11 3 3 14 13 6 2 3 4 1 5 2 3 2 4 4 4 4 2 4 3 3 6 7 6 4 6 6 5 1 4 9 11 11 12 14 12 10 10
24 23 22 10 6 3 5 6 11 3 4 6 4 3 4 5 3 2 1 1 4 3 5 4 5 4 8 8 8 7 9 8 10 5 7 10 11 12 12 13 13 12 12 10
28 15 4 4 6 15 12 6 2 3 5 3 5 3 4 3 3 3 4 3 3 3 5 3 4 7 6 7 7 7 12 9 14 12 8 9 10 14 12 12 10 10 11 9
8 5 3 4 22 5 2 4 4 4 6 5 5 6 5 2 3 3 3 3 3 3 4 4 4 5 7 10 9 8 12 14 12 4 7 10 15 13 13 11 10 10 11 9
8 10 8 9 4 3 5 5 5 8 8 6 9 6 5 4 3 2 3 2 1 4 2 3 5 5 4 5 8 11 10 10 8 6 11 10 12 12 11 11 10 9 8 10
13 6 5 6 5 6 10 9 5 6 5 7 11 7 5 2 3 0 1 4 5 2 2 5 6 3 2 6 8 8 7 9 8 7 7 10 10 9 9 8 5 8 8 6
5 5 6 6 6 6 5 6 6 5 4 10 13 5 4 2 3 2 2 4 2 1 3 7 3 4 5 6 6 11 8 8 9 8 8 9 9 6 6 7 9 10 10 7
4 4 6 5 5 3 1 3 2 3 8 11 7 4 4 1 3 2 2 2 4 5 5 4 3 1 6 8 7 9 8 7 7 6 7 7 8 7 6 4 6 7 9 8
4 3 4 3 6 3 3 3 4 8 10 4 4 4 4 3 4 4 7 4 7 5 2 2 0 2 3 6 6 6 6 7 6 6 6 7 7 7 8 7 6 7 10 9
3 2 1 1 3 3 2 4 7 4 7 4 4 5 6 4 3 4 4 5 2 1 1 1 1 4 7 6 7 6 7 8 8 6 7 6 7 9 9 9 4 7 6 6
Wind_Direction
189 185 183 185 168 163 117 109 129 327 350 127 192 192 164 326 310 314 276 38 119 156 150 178 231 222 231 53 103 330 194 169 247 240 258 291 207 128 85 139 327 299 277 269
185 187 183 178 172 157 111 92 113 358 7 188 207 108 148 158 255 258 187 234 195 110 179 150 213 214 273 3 77 220 191 290 324 313 3 353 74 111 116 108 149 209 230 266
191 182 189 182 181 161 96 117 128 87 301 133 147 151 195 194 229 272 24 350 67 132 199 264 236 236 315 130 170 239 153 200 211 246 229 219 244 217 268 186 217 246 247 277
190 192 183 189 188 165 105 110 221 175 183 209 139 165 177 180 202 212 168 246 211 166 172 250 234 225 293 247 234 188 180 215 223 256 270 275 268 253 253 253 244 246 277 265
189 192 191 188 189 164 162 142 150 100 351 159 183 186 195 173 204 174 224 216 216 195 188 202 142 145 139 246 332 191 149 263 143 256 255 256 271 262 252 259 261 257 256 268
182 193 195 193 181 167 143 134 40 108 161 162 181 207 151 190 148 244 225 209 195 263 241 227 237 230 225 236 206 206 162 206 111 274 247 302 287 234 237 238 217 203 234 249
193 192 190 191 194 181 95 122 127 109 188 178 203 190 196 191 210 217 106 163 136 236 340 273 248 247 253 234 228 200 186 179 175 284 336 265 247 265 230 226 257 224 203 184
188 193 188 195 209 194 131 121 121 124 156 167 160 178 195 211 232 242 251 254 202 76 5 348 307 306 280 235 217 214 195 146 214 247 248 277 301 277 194 191 284 210 181 126
191 190 196 199 222 208 150 188 105 33 137 211 140 182 166 171 180 298 233 266 192 135 134 123 243 234 230 262 300 201 168 204 193 228 257 260 223 237 331 138 287 104 133 151
193 193 199 206 208 222 162 218 165 163 208 248 149 166 180 157 146 186 267 193 93 116 143 198 216 245 207 232 205 184 141 168 215 242 255 256 248 153 191 109 250 146 149 157
198 199 201 206 210 216 193 181 177 178 165 293 233 169 139 134 145 158 204 64 354 102 189 181 197 207 231 257 219 194 189 183 209 217 243 270 46 62 176 252 33 341 118 149
202 203 206 208 210 212 194 178 142 130 150 264 358 317 306 290 177 141 189 174 126 166 164 233 126 204 256 203 254 238 235 181 191 194 226 182 184 201 312 318 233 179 132 143
209 205 209 210 210 210 198 152 136 129 177 208 181 238 268 294 249 171 136 298 192 162 153 167 219 243 154 200 241 205 265 154 193 15 234 228 201 177 162 180 151 137 135 144
207 204 207 210 214 211 193 170 163 116 110 227 257 182 222 219 216 169 173 169 169 135 149 229 224 214 187 247 242 214 201 146 175 256 279 327 235 192 142 119 106 103 105 138
203 203 203 205 201 192 207 146 201 151 153 188 281 326 235 191 205 211 173 164 149 151 181 221 229 245 265 237 274 238 183 183 173 240 199 241 264 153 143 135 133 127 138 130
194 194 195 193 184 179 163 145 208 117 106 64 312 231 256 248 210 207 211 208 204 172 187 227 222 227 176 242 237 245 209 196 209 216 117 147 135 133 138 129 148 154 142 140
190 187 187 186 182 181 149 150 170 153 96 120 292 268 223 188 171 179 153 166 187 178 189 218 230 235 197 229 247 231 217 188 148 135 116 124 168 162 146 139 136 134 125 123
179 178 178 180 175 175 198 313 148 137 107 168 242 262 232 174 159 180 184 157 164 191 198 201 211 179 206 249 230 214 143 117 133 165 19 148 124 131 135 139 127 131 131 130
174 170 167 156 180 164 157 158 112 348 148 175 207 211 211 157 159 127 112 150 195 165 205 209 162 182 223 220 211 191 181 171 165 126 116 127 139 144 149 138 140 144 153 145
165 151 143 161 160 141 101 40 87 242 193 245 195 145 181 175 158 173 160 189 206 200 228 127 197 244 227 216 206 183 168 162 142 129 144 153 156 169 153 154 153 152 153 146
166 133 142 120 132 80 73 162 180 214 184 196 177 167 157 196 171 168 207 182 163 211 252 166 239 261 229 199 181 158 161 158 166 119 154 171 166 159 150 152 151 148 150 157
155 115 118 131 116 136 163 206 179 222 213 193 157 155 177 148 156 193 160 148 144 236 139 96 263 250 256 156 138 145 143 143 136 141 146 142 148 150 147 150 151 151 141 140
127 107 153 128 208 163 176 191 193 218 171 180 160 156 135 101 86 204 147 169 221 72 87 227 232 247 145 127 125 115 110 114 114 109 104 111 116 122 133 127 105 122 125 132
124 146 130 161 197 209 184 188 179 211 155 163 154 126 120 154 90 144 169 238 124 254 235 236 247 215 151 121 121 122 136 129 125 123 119 124 128 122 114 136 144 139 146 146
121 130 177 189 221 227 138 145 125 171 149 144 121 66 93 103 113 211 117 194 231 225 234 238 282 190 136 126 121 123 126 126 127 127 126 131 132 130 111 87 114 114 126 132
126 148 159 166 153 147 177 200 149 139 142 110 83 119 123 177 149 154 213 180 219 243 243 321 27 82 88 115 113 109 112 120 118 117 123 121 126 129 128 109 112 125 139 141
59 77 31 246 79 123 135 154 135 135 134 134 124 131 186 119 183 223 184 206 216 290 23 66 109 130 126 110 103 112 112 110 108 99 101 100 108 118 122 124 120 125 121 121